AO-07 1 07530U 74089B 23333.85164090 -.00000033 00000-0 81720-4 0 9999 2 07530 101.9648 321.7463 0012387 106.2974 317.3005 12.53669718244177 UO-11 1 14781U 84021B 23333.92343992 .00003546 00000-0 41471-3 0 9999 2 14781 97.6800 304.7023 0008844 27.3785 332.7895 14.85676110139748 AO-16 1 20439U 90005D 23334.48440619 .00000498 00000-0 19814-3 0 9990 2 20439 98.8952 329.0957 0011816 78.0368 48.2413 14.33224004768977 LO-19 1 20442U 90005G 23334.52335816 .00000570 00000-0 22347-3 0 9997 2 20442 98.8646 314.7722 0012622 54.1150 306.1203 14.33380217769234 AO-27 1 22825U 93061C 23333.71649897 .00000331 00000-0 14504-3 0 9997 2 22825 98.8199 19.1031 0007548 309.3164 50.7348 14.30387788574226 IO-26 1 22826U 93061D 23334.72669011 .00000419 00000-0 17743-3 0 9995 2 22826 98.8144 19.9888 0007947 289.6477 70.3847 14.30758998574626 FO-29 1 24278U 96046B 23333.44749379 .00000055 00000-0 93433-4 0 9995 2 24278 98.5551 289.6546 0350029 348.5184 10.8120 13.53164559347288 NOAA-15 1 25338U 98030A 23334.82629223 .00000356 00000-0 16569-3 0 9994 2 25338 98.5903 0.9212 0010301 181.5545 178.5605 14.26444795329018 GO-32 1 25397U 98043D 23334.82747544 .00000334 00000-0 16566-3 0 9993 2 25397 98.8939 293.9095 0001905 47.8742 312.2598 14.23950628319269 ISS 1 25544U 98067A 23334.88360323 .00024407 00000-0 43434-3 0 9996 2 25544 51.6428 222.8885 0000854 1.5392 103.8408 15.49998542427643 NO-44 1 26931U 01043C 23334.82524645 .00000692 00000-0 29376-3 0 9997 2 26931 67.0499 126.5119 0005794 258.3420 101.7032 14.31057012157586 SO-50 1 27607U 02058C 23334.59171869 .00001781 00000-0 26080-3 0 9994 2 27607 64.5569 114.5455 0049760 186.9788 173.0629 14.77982604127025 CO-55 1 27844U 03031E 23333.99396862 .00000788 00000-0 36943-3 0 9999 2 27844 98.6789 338.8558 0009937 11.7886 348.3523 14.22980546 59343 CO-57 1 27848U 03031J 23333.99320635 .00000655 00000-0 31338-3 0 9994 2 27848 98.6822 339.2022 0010112 26.8532 333.3167 14.22463231 59129 RS-22 1 27939U 03042A 23334.78480948 .00003202 00000-0 55385-3 0 9998 2 27939 98.2646 123.3065 0011755 335.4138 162.2388 14.69038781 78993 NOAA-18 1 28654U 05018A 23334.82505746 .00000510 00000-0 29699-3 0 9995 2 28654 98.8959 48.2966 0013337 267.7294 92.2351 14.13068388955108 CO-58 1 28895U 05043F 23334.06159019 .00003793 00000-0 69252-3 0 9999 2 28895 98.1760 105.1652 0014991 269.2140 90.7346 14.66479971965343 CO-65 1 32785U 08021C 23334.46929691 .00007788 00000-0 73379-3 0 9999 2 32785 97.7304 297.2452 0009664 272.8578 87.1536 14.94055333845703 AAUSAT2 1 32788U 08021F 23333.46778457 .00019021 00000-0 12163-2 0 9999 2 32788 97.5785 309.8563 0008477 131.8337 228.3617 15.08623942847982 CO-66 1 32791U 08021J 23334.47418867 .00012796 00000-0 10457-2 0 9997 2 32791 97.6801 302.6949 0008874 197.5497 162.5420 14.99479706846630 RS-30 1 32953U 08025A 23334.72054763 .00000071 00000-0 43619-3 0 9990 2 32953 82.5046 213.5158 0018947 179.0336 181.0784 12.43132815704349 PRISM 1 33493U 09002B 23333.62011072 .00021269 00000-0 12729-2 0 9999 2 33493 98.2337 0.1780 0013816 205.2788 154.7766 15.10979980808699 NOAA-19 1 33591U 09005A 23334.82010628 .00000344 00000-0 20941-3 0 9997 2 33591 99.0782 23.2400 0014569 131.9801 228.2614 14.12877091763479 SRMSAT 1 37841U 11058D 23333.30047021 .00000686 00000-0 23139-3 0 9990 2 37841 19.9726 291.6726 0011928 47.2474 97.9096 14.10992317626372 HRBE 1 37855U 11061F 23334.70285678 .00060008 00000-0 13501-2 0 9991 2 37855 101.6965 32.0632 0094275 246.5359 112.5939 15.38464565662523 RS-40 1 38735U 12041C 23334.41910510 .00000033 00000-0 16527-3 0 9990 2 38735 82.4741 294.4312 0016471 297.1771 62.7629 12.42598175514457 ZACUBE-1 1 39417U 13066B 23334.44976420 .00007178 00000-0 79239-3 0 9997 2 39417 97.7096 290.6517 0055091 99.6008 261.1438 14.86630200541887 Delfi-N3xt 1 39428U 13066N 23333.38517097 .00011960 00000-0 16335-2 0 9993 2 39428 97.8369 252.5728 0107695 18.6535 341.8574 14.74745590536469 GOMX-1 1 39430U 13066Q 23334.74322131 .00004372 00000-0 74665-3 0 9990 2 39430 97.7561 216.0612 0143321 165.4014 195.1395 14.62817509533871 LO-74 1 39440U 13066AA 23334.47432915 .00006618 00000-0 82277-3 0 9996 2 39440 97.7926 278.1041 0072144 204.7367 155.0380 14.81025776539956 AO-73 1 39444U 13066AE 23333.86643474 .00009113 00000-0 95469-3 0 9996 2 39444 97.6951 292.8185 0053097 85.3360 275.3919 14.88741522540868 SPROUT 1 39770U 14029E 23334.32609947 .00054105 00000-0 30425-2 0 9998 2 39770 98.0024 107.8290 0004302 120.4594 239.7061 15.13060393517172 DTUSAT-2 1 40030U 14033W 23334.78526393 .00010061 00000-0 92000-3 0 9998 2 40030 97.9861 277.8062 0012164 96.9070 263.3534 14.95150680513381 EO-80 1 40032U 14033Y 23334.82643908 .00009596 00000-0 87712-3 0 9992 2 40032 97.9853 277.8633 0012040 96.8574 263.4016 14.95182618513370 HODOYOSHI-1 1 40299U 14070B 23334.76052343 .00024303 00000-0 63302-3 0 9990 2 40299 97.1718 33.4090 0010397 47.0633 313.1484 15.38810583504376 GRIFEX 1 40379U 15003D 23334.74994647 .00152598 00000-0 14865-2 0 9993 2 40379 99.0858 314.4773 0052836 52.2668 308.3356 15.63953275489180 XW-2C 1 40906U 15049H 23334.79170416 .00027530 00000-0 89092-3 0 9996 2 40906 97.4908 343.0696 0008371 301.5754 58.4669 15.31984425453858 XW-2D 1 40907U 15049J 23334.79898199 .00030448 00000-0 88791-3 0 9999 2 40907 97.4875 344.1955 0006910 291.6933 68.3574 15.35287075453987 LILACSAT-2 1 40908U 15049K 23334.81213606 .00011865 00000-0 51653-3 0 9996 2 40908 97.5275 337.7131 0012448 337.3982 22.6704 15.22315716453126 XW-2E 1 40909U 15049L 23334.80447196 .00101068 00000-0 14618-2 0 9993 2 40909 97.4378 353.0295 0003688 212.6283 147.4743 15.55561293454878 XW-2F 1 40910U 15049M 23334.82045574 .00098430 00000-0 14776-2 0 9994 2 40910 97.4480 352.3045 0004177 219.9327 140.1620 15.54549289454607 XW-2B 1 40911U 15049N 23334.82458872 .00031202 00000-0 91976-3 0 9996 2 40911 97.4853 344.5397 0006938 293.5759 66.4755 15.34942029453862 DCBB 1 40912U 15049P 23334.80391872 .00214896 00000-0 16493-2 0 9993 2 40912 97.3936 358.2197 0005388 150.6002 209.5565 15.71410607455488 IO-86 1 40931U 15052B 23334.56807149 .00001891 00000-0 17038-3 0 9996 2 40931 6.0017 338.6299 0012591 133.8586 226.2583 14.77501334441995 ChubuSat-2 1 41338U 16012B 23334.11018063 .00008129 00000-0 54202-3 0 9990 2 41338 31.0014 235.7930 0011809 30.9199 329.2131 15.05695895427398 ChubuSat-3 1 41339U 16012C 23334.79151193 .00007383 00000-0 49574-3 0 9994 2 41339 31.0075 228.9645 0011751 44.3127 315.8449 15.05402100427487 Horyu-4 1 41340U 16012D 23333.98816977 .00015426 00000-0 89106-3 0 9996 2 41340 31.0015 194.5979 0010347 104.0485 256.1304 15.11093755427792 e-st@r-II 1 41459U 16025D 23334.57085060 .00077326 00000-0 14438-2 0 9990 2 41459 98.1587 194.2387 0076148 234.0244 125.3925 15.45297823418446 Lapan A3 1 41603U 16040E 23334.81546936 .00005275 00000-0 22283-3 0 9991 2 41603 97.1545 352.6883 0014312 88.0859 272.2018 15.23564641412850 Pratham 1 41783U 16059A 23334.50158175 .00001836 00000-0 35406-3 0 9990 2 41783 97.8539 358.1247 0031520 294.9171 64.8758 14.64335619383318 CAS-2T 1 41847U 16066G 23334.16748361 .00002046 00000-0 30784-3 0 9991 2 41847 98.4865 41.8408 0358188 59.2044 304.3888 14.40398947370696 CAS-4B 1 42759U 17034B 23334.80088276 .00017911 00000-0 79203-3 0 9999 2 42759 43.0139 267.0358 0009897 111.0912 249.0997 15.21363146356970 CAS-4A 1 42761U 17034D 23334.81491388 .00019354 00000-0 85325-3 0 9990 2 42761 43.0136 265.4478 0010576 112.9853 247.2113 15.21419426356989 NIUSat 1 42766U 17036B 23334.62994655 .00076465 00000-0 11891-2 0 9993 2 42766 97.1340 3.3890 0005647 193.3698 166.7408 15.53651741358315 Aalto 1 1 42775U 17036L 23334.61980202 .00038314 00000-0 82904-3 0 9990 2 42775 97.1333 0.5906 0006566 209.0760 151.0125 15.44351675358125 URSA MAIOR 1 42776U 17036M 23334.65353133 .00050531 00000-0 95548-3 0 9995 2 42776 97.1331 2.6321 0006162 199.1018 161.0003 15.48233108358248 Max Valier Sat 1 42778U 17036P 23334.63659408 .00053292 00000-0 94958-3 0 9990 2 42778 97.1322 6.4688 0005266 197.1886 162.9189 15.49927159358403 Pegasus 1 42784U 17036V 23333.67597011 .00275649 00000-0 16009-2 0 9993 2 42784 97.1183 11.4197 0003476 167.2121 192.9235 15.77743470358742 VENTA 1 1 42791U 17036AC 23334.40845032 .00304902 00000-0 16403-2 0 9995 2 42791 97.1147 13.4712 0003156 159.7389 200.4005 15.79384987358928 D-SAT 1 42794U 17036AF 23333.95487022 .00006872 00000-0 51943-3 0 9992 2 42794 97.4787 318.6259 0114096 103.4028 257.9943 14.97546160350755 TechnoSat 1 42829U 17042E 23334.47680993 .00006197 00000-0 57360-3 0 9997 2 42829 97.3791 162.0483 0013996 32.6954 327.5131 14.94777319347327 AO-91 1 43017U 17073E 23333.74152125 .00013721 00000-0 91519-3 0 9996 2 43017 97.6032 211.6067 0222150 241.1912 116.6840 14.89137433325794 AO-92 1 43137U 18004AC 23334.74225094 .00171139 00000-0 13698-2 0 9990 2 43137 97.3086 57.7842 0003565 244.1628 115.9267 15.70538337328187 TianYi 2 1 43155U 18008A 23334.82197502 .00045860 00000-0 13513-2 0 9992 2 43155 97.2738 24.0494 0011934 78.1544 282.1037 15.34820243324123 Zhou Enlai 1 43156U 18008B 23334.78367028 .00055648 00000-0 15455-2 0 9992 2 43156 97.2783 24.4929 0009637 79.2272 281.0056 15.36651716324069 TianYi 6 1 43158U 18008D 23334.66780470 .00034092 00000-0 11521-2 0 9991 2 43158 97.2830 20.2972 0010635 85.1800 275.0655 15.30518944323818 S-Net D 1 43186U 18014G 23333.69256799 .00008240 00000-0 63159-3 0 9994 2 43186 97.5999 234.2528 0011596 334.0485 26.0157 15.02033354318387 S-Net B 1 43187U 18014H 23334.29362862 .00007894 00000-0 60513-3 0 9996 2 43187 97.6004 234.7772 0012107 327.7500 32.2984 15.02038968318471 S-Net A 1 43188U 18014J 23334.29342241 .00007756 00000-0 59452-3 0 9993 2 43188 97.6008 234.8746 0011980 328.1159 31.9339 15.02043984318475 S-Net C 1 43189U 18014K 23334.29608648 .00007567 00000-0 57997-3 0 9992 2 43189 97.6029 234.7849 0013300 321.2293 38.7977 15.02044910317026 CubeBel-1 1 43666U 18083E 23334.79555347 .00118561 00000-0 15987-2 0 9999 2 43666 97.3568 9.0242 0004580 215.7626 144.3323 15.57396028282938 Changshagaoxin 1 43669U 18083H 23334.82548842 .00075076 00000-0 14202-2 0 9990 2 43669 97.3605 2.3395 0003418 224.1694 135.9284 15.48128354282595 Ten-Koh 1 43677U 18084G 23334.09564831 .00005564 00000-0 52350-3 0 9997 2 43677 98.0365 117.4089 0013948 324.8469 35.1829 14.94231363276820 PO-101 1 43678U 18084H 23334.44815949 .00003540 00000-0 33584-3 0 9996 2 43678 98.0456 122.1064 0008855 340.4577 19.6301 14.94193539277086 QO-100 1 43700U 18090A 23334.46921215 .00000153 00000-0 00000 0 0 9995 2 43700 0.0149 304.0276 0002028 339.4931 340.2878 1.00272442 18593 MinXSS-2 1 43758U 18099A 23334.64494931 .00012915 00000-0 92389-3 0 9991 2 43758 97.5843 35.4931 0017065 279.8690 80.0609 15.04454773272745 AO-95 1 43770U 18099N 23334.69589069 .00010775 00000-0 81885-3 0 9998 2 43770 97.5789 32.0368 0013078 325.4123 34.6250 15.02263037272582 RANGE-B 1 43772U 18099Q 23334.40997755 .00013965 00000-0 99464-3 0 9990 2 43772 97.5523 34.8329 0005016 226.8585 133.2222 15.04706157272634 RANGE-A 1 43773U 18099R 23334.12883419 .00006312 00000-0 51032-3 0 9998 2 43773 97.5455 28.7317 0012617 287.4490 72.5355 15.00071840272420 MOVE-II 1 43780U 18099Y 23334.11263800 .00023106 00000-0 14919-2 0 9993 2 43780 97.5508 34.9071 0006907 313.7365 46.3291 15.08235639272707 SNUSat 2 1 43782U 18099AA 23334.15698860 .00009461 00000-0 72886-3 0 9993 2 43782 97.5484 31.6836 0013654 252.8217 107.1513 15.01773642272528 SnugLite 1 43784U 18099AC 23333.70389843 .00010822 00000-0 81795-3 0 9995 2 43784 97.5281 30.7607 0003941 270.0731 90.0043 15.02527917272501 ITASat 1 1 43786U 18099AE 23334.69305792 .00008943 00000-0 69552-3 0 9995 2 43786 97.5466 32.7057 0017247 303.4292 56.5283 15.01386637272612 EAGLET 1 1 43790U 18099AJ 23334.39900092 .00006980 00000-0 55516-3 0 9995 2 43790 97.5628 32.8120 0015506 291.4652 68.4918 15.00631743272292 ESEO 1 43792U 18099AL 23334.14981637 .00003184 00000-0 27091-3 0 9994 2 43792 97.5471 30.4610 0011865 288.2169 71.7762 14.98457627272230 CSIM 1 43793U 18099AM 23334.70002083 .00019379 00000-0 12436-2 0 9995 2 43793 97.5575 37.0153 0013140 280.4065 79.5682 15.08448190272647 JO-97 1 43803U 18099AX 23334.13497160 .00011395 00000-0 84159-3 0 9990 2 43803 97.5482 32.5697 0009753 264.9834 95.0278 15.03362191272606 Suomi 100 1 43804U 18099AY 23334.64011373 .00010950 00000-0 81687-3 0 9994 2 43804 97.5590 32.8548 0015940 260.1961 99.7464 15.02927976272671 CHOMPTT 1 43855U 18104G 23334.22707998 .00070076 00000-0 10817-2 0 9997 2 43855 85.0250 52.1956 0008606 56.3755 303.8324 15.53832201276228 ISAT 1 43879U 18111D 23334.71892559 .00014447 00000-0 10061-2 0 9994 2 43879 97.6323 237.0193 0012984 327.5599 32.4828 15.05484205267345 UWE-4 1 43880U 18111E 23334.68224724 .00014055 00000-0 98978-3 0 9994 2 43880 97.6230 237.4278 0017375 333.7919 26.2426 15.05018535267384 Sparrow 1 43881U 18111F 23334.68381471 .00015452 00000-0 10646-2 0 9995 2 43881 97.6386 238.5520 0011405 10.8053 349.3416 15.05885286267416 Lume 1 1 43908U 18111AJ 23334.20538874 .00147206 00000-0 12840-2 0 9995 2 43908 97.1048 216.6857 0005486 338.2896 21.8132 15.68508175275188 AISTechSat 3 1 44103U 19018AB 23334.76897943 .00083471 00000-0 11883-2 0 9995 2 44103 97.2258 33.2810 0006437 33.4363 326.7297 15.56044091260263 AISat 1 1 44104U 19018AC 23334.16872156 .00053681 00000-0 70752-3 0 9990 2 44104 97.3714 69.6304 0031024 10.5781 349.6121 15.57672391261456 Prox-1 1 44339U 19036A 23334.65536576 .00013833 00000-0 26397-2 0 9997 2 44339 24.0015 64.1082 0008813 307.0362 52.9325 14.62291773236053 Move-IIb 1 44398U 19038N 23334.95864953 .01981195 32256-2 25722-2 0 9997 2 44398 97.6574 330.1326 0007935 111.5940 303.1830 16.07845419244611 SONATE 1 44400U 19038Q 23333.50434302 .00019028 00000-0 74026-3 0 9990 2 44400 97.7011 315.2242 0021175 93.2687 267.0974 15.25858528243406 BeeSat 9 1 44412U 19038AC 23334.49315866 .00063845 00000-0 14585-2 0 9994 2 44412 97.6857 322.0518 0015563 74.0986 286.1975 15.42507221243673 JAISAT-1 1 44419U 19038F 23333.96523146 .00066023 00000-0 15091-2 0 9998 2 44419 97.6837 322.6179 0015084 73.4152 286.8750 15.42488751243970 Taurus 1 1 44530U 19059C 23334.61457680 .00009164 00000-0 22710-2 0 9996 2 44530 98.5646 85.2841 0011792 302.9809 57.0251 14.52094082222770 Duchifat 3 1 44854U 19089C 23334.74490192 .00015777 00000-0 95385-3 0 9993 2 44854 36.9580 173.3391 0008587 262.9630 97.0138 15.09993600217988 OPS-SAT 1 44878U 19092F 23334.47529364 .00058427 00000-0 11967-2 0 9999 2 44878 97.4618 166.5213 0006474 255.6456 104.4074 15.45872981219378 TO-108 1 44881U 19093C 23334.50773449 .00002561 00000-0 32095-3 0 9997 2 44881 97.8491 50.0596 0013253 253.9684 106.0070 14.83034315213441 FloripaSat 1 1 44885U 19093G 23334.80583233 .00008276 00000-0 91572-3 0 9998 2 44885 97.8579 54.2052 0012134 251.3399 108.6500 14.87559342213708 RS-44 1 44909U 19096E 23334.12420119 .00000045 00000-0 13210-3 0 9995 2 44909 82.5228 237.6725 0217736 158.7399 202.2924 12.79724075183439 BY70-2 1 45857U 20042B 23334.78893651 .00057979 00000-0 45854-2 0 9994 2 45857 97.9186 56.1912 0007043 168.6612 191.4771 15.00367162184429 UPMSat 2 1 46276U 20061E 23334.73432705 .00018166 00000-0 67991-3 0 9997 2 46276 97.3267 39.0539 0002581 96.6531 263.5002 15.27354087179676 AmicalSat 1 46287U 20061R 23334.15525822 .00028138 00000-0 10993-2 0 9997 2 46287 97.3798 37.9430 0001128 185.1599 174.9628 15.25840930178963 SALSAT 1 46495U 20068K 23334.39893460 .00009523 00000-0 59092-3 0 9998 2 46495 97.7923 284.5573 0012822 277.1572 82.8198 15.09869107174135 CAPE 3 1 47309U 21002A 23334.80831324 .00145894 00000-0 15492-2 0 9996 2 47309 60.6674 129.2368 0022476 37.1134 323.1521 15.62972922160105 AO-109 1 47311U 21002C 23334.77957886 .00080563 00000-0 12309-2 0 9992 2 47311 60.6749 132.4041 0023212 38.3431 321.9315 15.53582801160039 ExoCube 2 1 47319U 21002L 23334.82662934 .00076006 00000-0 12251-2 0 9996 2 47319 60.6728 135.3515 0023979 38.1837 322.0957 15.52106185159948 UVSQ-SAT 1 47438U 21006AB 23333.70688586 .00035094 00000-0 11483-2 0 9997 2 47438 97.3612 28.9564 0007617 207.7843 152.2993 15.31582668157911 YUSAT 1 1 47439U 21006AC 23334.71545104 .00048267 00000-0 13311-2 0 9996 2 47439 97.3611 31.6265 0006962 197.1109 162.9901 15.36929964158174 SOMP 2b 1 47445U 21006AJ 23333.72608455 .00031330 00000-0 10631-2 0 9997 2 47445 97.3574 27.9303 0007531 213.0003 147.0769 15.30432038157871 IDEASSat 1 47458U 21006AX 23334.12460806 .00031594 00000-0 11099-2 0 9993 2 47458 97.3673 29.1126 0006957 211.6796 148.4026 15.29304517157909 CubeSX-Sirius-HSE 1 47951U 21022V 23334.48620082 .00019477 00000-0 96071-3 0 9992 2 47951 97.4785 229.3876 0018778 114.0227 246.2975 15.17798930148214 CubeSX-HSE 1 47952U 21022W 23334.78133921 .00021312 00000-0 10478-2 0 9994 2 47952 97.4788 229.7428 0018754 112.4512 247.8710 15.17893097148267 KSU-Cubesat 1 47954U 21022Y 23334.71248439 .00024718 00000-0 11650-2 0 9996 2 47954 97.4794 230.3421 0018097 109.9882 250.3304 15.19340983148012 GRBAlpha 1 47959U 21022AD 23334.69261355 .00019911 00000-0 97694-3 0 9992 2 47959 97.4790 229.7671 0018567 113.0258 247.2937 15.17982207147078 Orbicraft-Zorkiy 1 47960U 21022AE 23334.81865926 .00024687 00000-0 11711-2 0 9993 2 47960 97.4824 230.6093 0018076 110.7850 249.5323 15.19118259147810 STECCO 1 47962U 21022AG 23334.69286536 .00049753 00000-0 17114-2 0 9999 2 47962 97.4798 234.7709 0013189 90.7268 269.5483 15.29826064147406 MO-110 1 47964U 21022AJ 23333.71316870 .00052019 00000-0 17156-2 0 9993 2 47964 97.4820 234.6799 0014888 89.6938 270.6008 15.31154683147309 FEES 1 48082U 21022AL 23334.31297977 .00168219 00000-0 27972-2 0 9995 2 48082 97.4769 239.2660 0011736 75.4484 284.8069 15.51384265147362 TUBIN 1 48900U 21059X 23334.78014515 .00017389 00000-0 73188-3 0 9992 2 48900 97.6215 110.1113 0009153 65.8106 294.4086 15.23405645134506 IT-SPINS 1 49017U 21013G 23334.02883199 .00145467 00000-0 15600-2 0 9994 2 49017 51.5852 335.9860 0001711 57.9940 302.1220 15.62818731135435 LEDSAT 1 49069U 21073D 23334.40227644 .00017847 00000-0 87328-3 0 9993 2 49069 97.4649 42.6998 0020729 263.4007 96.4868 15.18063639126089 CUTE 1 49263U 21088D 23333.18320364 .00017405 00000-0 99303-3 0 9998 2 49263 97.5257 36.3748 0017469 59.6986 300.5970 15.12687254119198 TeikyoSat 4 1 49396U 21102B 23334.07854887 .00004156 00000-0 31180-3 0 9991 2 49396 97.4917 20.8145 0012775 234.5458 125.4575 15.03112912112685 Z-Sat 1 49399U 21102E 23334.44877498 .00005763 00000-0 39469-3 0 9991 2 49399 97.4620 22.3858 0020216 218.6812 141.2968 15.06282952112905 KOSEN 1 1 49402U 21102H 23334.63716189 .00009287 00000-0 59600-3 0 9990 2 49402 97.4546 23.4164 0019401 204.6515 155.3788 15.08535308113037 HO-113 1 50466U 21131B 23334.48607280 .00001405 00000-0 46763-3 0 9998 2 50466 98.5430 55.4596 0004290 18.4548 341.6794 14.39218161101272 Tevel-3 1 50988U 22002E 23334.44820730 .00047771 00000-0 13989-2 0 9997 2 50988 97.4125 41.0972 0006191 15.4393 344.7038 15.35057702104172 Tevel-8 1 50989U 22002F 23334.73578791 .00049321 00000-0 14466-2 0 9991 2 50989 97.4141 41.4629 0006086 12.2601 347.8789 15.35000257104219 Tevel-5 1 50998U 22002Q 23334.73766097 .00054686 00000-0 15298-2 0 9993 2 50998 97.4118 42.0199 0006913 5.0381 355.0931 15.36453281104261 Tevel-6 1 50999U 22002R 23334.41113713 .00054301 00000-0 15216-2 0 9994 2 50999 97.4118 41.6810 0006870 5.8615 354.2708 15.36402683104215 Tevel-1 1 51013U 22002AF 23334.79014199 .00048288 00000-0 14158-2 0 9992 2 51013 97.4117 41.3512 0006006 14.0874 346.0535 15.35016951104224 NO-116 1 51031U 22002AZ 23334.01803502 .00195370 00000-0 25880-2 0 9990 2 51031 97.4214 47.0143 0005141 330.8105 29.2862 15.57606149104456 IRIS-A 1 51044U 22002BN 23333.17231869 .00018908 00000-0 78802-3 0 9995 2 51044 97.4148 36.3639 0008037 32.4426 327.7303 15.23724099103740 Tevel-7 1 51062U 22002CG 23334.79886423 .00050184 00000-0 14694-2 0 9996 2 51062 97.4135 41.4964 0006084 12.0654 348.0734 15.35049741104226 Tevel-4 1 51063U 22002CH 23334.81310560 .00048956 00000-0 14388-2 0 9998 2 51063 97.4133 41.4707 0006025 12.7340 347.4054 15.34938518104220 Tevel-2 1 51069U 22002CP 23334.44909236 .00048212 00000-0 14110-2 0 9995 2 51069 97.4123 41.0655 0006134 15.0704 345.0721 15.35074164104172 DELFI-PQ 1 51074U 22002CU 23334.72298053 .00311198 00000-0 25167-2 0 9990 2 51074 97.4330 51.8724 0004757 338.7448 21.3616 15.69869313104759 SO-115 1 51080U 22002DA 23334.02501325 .00070732 00000-0 16898-2 0 9996 2 51080 97.4416 46.2240 0008051 33.0505 327.1243 15.41222394104319 SO-114 1 51081U 22002DB 23334.17753186 .00072454 00000-0 17018-2 0 9995 2 51081 97.4406 46.4033 0008001 31.9545 328.2185 15.41728284104346 OreSat0 1 52017U 22026K 23333.55096466 .00038331 00000-0 11911-2 0 9995 2 52017 97.5082 337.3167 0016411 213.9693 146.0499 15.33114758 94806 Planetum 1 1 52738U 22057G 23334.81827060 .00031292 00000-0 11771-2 0 9994 2 52738 97.5526 91.5769 0006657 125.7801 234.4057 15.27060104 84021 Foresail-1 1 52766U 22057AL 23334.26784642 .00020439 00000-0 84505-3 0 9999 2 52766 97.5662 91.7405 0011961 110.3301 249.9223 15.23944409 83931 SNUGLITE 2 1 52899U 22065F 23333.70889196 .00002846 00000-0 60337-3 0 9992 2 52899 98.0917 114.2484 0008810 63.6965 296.5140 14.59911368 75001 CTIM 1 52950U 22074G 23334.49682190 .01642438 18207-2 20699-2 0 9996 2 52950 44.9933 127.5004 0018606 314.7654 45.1745 16.06744093 79557 IO-117 1 53106U 22080B 23332.09968023 -.00000003 00000-0 00000-0 0 9991 2 53106 70.1436 262.7414 0008227 151.4978 208.6132 6.42557248 32288 SelfieSat 1 53951U 22057BC 23333.78647258 .00042692 00000-0 14223-2 0 9997 2 53951 97.5566 91.9225 0007646 122.0579 238.1406 15.30957566 83934 FO-118 1 54684U 22167C 23334.82877506 .00026590 00000-0 12468-2 0 9998 2 54684 97.5828 112.0863 0012745 118.6813 241.5704 15.19580375 53933 SSS-2B 1 56184U 23054G 23334.41858517 .00028298 00000-0 10117-2 0 9993 2 56184 97.3897 227.4993 0009632 155.2300 204.9404 15.28733029 35518 CIRBE 1 56188U 23054L 23334.14098733 .00047781 00000-0 15704-2 0 9998 2 56188 97.3851 227.4203 0008866 143.7924 216.3919 15.31357151 35495 INSPIRE-Sat 7 1 56211U 23054AK 23333.94090742 .00044009 00000-0 13644-2 0 9995 2 56211 97.3873 227.9079 0013001 133.9044 226.3274 15.33205432 35506 RoseyCubesat 1 1 56212U 23054AL 23334.40367756 .00043062 00000-0 12978-2 0 9997 2 56212 97.3878 228.5269 0013358 130.8863 229.3539 15.34104574 35581 SO-120 1 56992U 23084BU 23334.58845519 .00025082 00000-0 12571-2 0 9993 2 56992 97.5201 88.9006 0016200 6.4621 353.6818 15.17228106 25820 MRC-100 1 56993U 23084BV 23333.84813247 .00028770 00000-0 14239-2 0 9995 2 56993 97.5205 88.2135 0016184 8.5818 351.5689 15.17639768 25725 UmKA 1 (RS40S) 1 57172U 23091G 23334.42450177 .00008504 00000-0 60205-3 0 9995 2 57172 97.6430 23.5673 0018907 82.2018 278.1354 15.04934782 23429 CubeBel-2 (EU11S) 1 57175U 23091K 23334.46953454 .00009826 00000-0 69785-3 0 9998 2 57175 97.6434 23.4998 0018123 93.5021 266.8278 15.04781841 23429 VERONIKA 1 58261U 23174F 23334.80138649 .00019925 00000-0 11043-2 0 9990 2 58261 97.4853 47.4059 0013075 212.5546 147.4880 15.13756712 3485 HADES-D 1 58294U 23174AQ 23333.86495140 .00019744 00000-0 10685-2 0 9993 2 58294 97.4827 46.5078 0010327 200.7632 159.3182 15.14636966 3346 KAFASAT 1 58317U 23174BP 23333.85851147 .00025018 00000-0 13279-2 0 9994 2 58317 97.4804 46.5053 0012463 193.8609 166.2283 15.15253953 3340